| time (UTC) | temp F | wind direction | speed MPH | gust MPH | rain 1hr in | rain 24hr in | rain mn in | humidity % | barometer mb |
| 20260505120030 | 60 | 96 | 1.0 | 7.0 | 0.00 | 0.00 | 0.00 | 62 | 1007.4 |
| 20260505114517 | 58 | 336 | 1.0 | 3.0 | 0.00 | 0.00 | 0.00 | 61 | 1007.4 |
| 20260505113037 | 56 | 224 | 3.0 | 8.0 | 0.00 | 0.00 | 0.00 | 63 | 1007.4 |
| 20260505111538 | 55 | 293 | 2.0 | 9.0 | 0.00 | 0.00 | 0.00 | 66 | 1007.4 |
| 20260505101524 | 0 | 0.0 | 0.0 | 0.00 | 0.00 | 0.00 | 1007.0 | ||
| 20260505100016 | 0 | 0.0 | 0.0 | 0.00 | 0.00 | 0.00 | 1007.0 | ||
| 20260505094517 | 0 | 0.0 | 0.0 | 0.00 | 0.00 | 0.00 | 1007.0 | ||
| 20260505093016 | 0 | 0.0 | 0.0 | 0.00 | 0.00 | 0.00 | 1007.0 | ||
| 20260505091516 | 0 | 0.0 | 0.0 | 0.00 | 0.00 | 0.00 | 1007.2 | ||
| 20260505090023 | 0 | 0.0 | 0.0 | 0.00 | 0.00 | 0.00 | 1007.3 | ||
| 20260505084526 | 0 | 0.0 | 0.0 | 0.00 | 0.00 | 0.00 | 1007.3 | ||
| 20260505083019 | 0 | 0.0 | 0.0 | 0.00 | 0.00 | 0.00 | 1007.3 | ||
| 20260505081521 | 0 | 0.0 | 0.0 | 0.00 | 0.00 | 0.00 | 1007.4 | ||
| 20260505080028 | 0 | 0.0 | 0.0 | 0.00 | 0.00 | 0.00 | 1007.3 | ||
| 20260505074508 | 0 | 318 | 1.0 | 3.0 | 0.00 | 0.00 | 0.00 | 69 | 1007.3 |
| 20260505073015 | 51 | 215 | 1.0 | 10.0 | 0.00 | 0.00 | 0.00 | 70 | 1007.4 |
| 20260505071519 | 50 | 312 | 3.0 | 10.0 | 0.00 | 0.00 | 0.00 | 72 | 1007.6 |
| 20260505070003 | 49 | 240 | 0.0 | 2.0 | 0.00 | 0.00 | 0.00 | 74 | 1007.7 |
| 20260505064511 | 50 | 318 | 1.0 | 2.0 | 0.00 | 0.00 | 0.00 | 72 | 1007.7 |
| 20260505063011 | 50 | 287 | 0.0 | 2.0 | 0.00 | 0.00 | 0.00 | 71 | 1007.9 |
| 20260505061514 | 51 | 80 | 0.0 | 2.0 | 0.00 | 0.00 | 0.00 | 71 | 1008.0 |
| 20260505060021 | 52 | 292 | 0.0 | 4.0 | 0.00 | 0.00 | 0.00 | 68 | 1008.0 |
| 20260505054507 | 51 | 269 | 1.0 | 5.0 | 0.00 | 0.00 | 0.00 | 69 | 1008.0 |
| 20260505053009 | 51 | 294 | 1.0 | 3.0 | 0.00 | 0.00 | 0.00 | 69 | 1008.0 |
| 20260505051512 | 51 | 320 | 1.0 | 5.0 | 0.00 | 0.00 | 0.00 | 69 | 1008.0 |
| 20260505041513 | 54 | 317 | 0.0 | 3.0 | 0.00 | 0.00 | 0.00 | 63 | 1007.7 |
| 20260505040030 | 54 | 309 | 0.0 | 4.0 | 0.00 | 0.00 | 0.00 | 63 | 1007.5 |
| 20260505034533 | 53 | 281 | 0.0 | 3.0 | 0.00 | 0.00 | 0.00 | 64 | 1007.4 |
| 20260505033024 | 55 | 341 | 1.0 | 3.0 | 0.00 | 0.00 | 0.00 | 61 | 1007.4 |
| 20260505031508 | 54 | 247 | 1.0 | 5.0 | 0.00 | 0.00 | 0.00 | 61 | 1007.4 |
| 20260505030016 | 53 | 221 | 1.0 | 6.0 | 0.00 | 0.00 | 0.00 | 62 | 1007.3 |
| 20260505024518 | 52 | 279 | 0.0 | 2.0 | 0.00 | 0.00 | 0.00 | 62 | 1007.3 |
| 20260505023022 | 51 | 312 | 0.0 | 2.0 | 0.00 | 0.00 | 0.00 | 69 | 1007.2 |
| 20260505021524 | 51 | 237 | 0.0 | 1.0 | 0.00 | 0.00 | 0.00 | 70 | 1007.3 |
| 20260505020012 | 51 | 234 | 0.0 | 2.0 | 0.00 | 0.00 | 0.00 | 68 | 1007.1 |
| 20260505014516 | 51 | 221 | 0.0 | 2.0 | 0.00 | 0.00 | 0.00 | 67 | 1007.1 |
| 20260505013017 | 52 | 221 | 0.0 | 1.0 | 0.00 | 0.00 | 0.00 | 66 | 1007.1 |
| 20260505011521 | 53 | 221 | 0.0 | 2.0 | 0.00 | 0.00 | 0.00 | 65 | 1007.0 |
| 20260505010027 | 54 | 242 | 0.0 | 2.0 | 0.00 | 0.00 | 0.00 | 64 | 1007.0 |
| 20260505004517 | 54 | 240 | 0.0 | 2.0 | 0.00 | 0.00 | 0.00 | 61 | 1006.8 |
| 20260505003017 | 55 | 300 | 0.0 | 2.0 | 0.00 | 0.00 | 0.00 | 62 | 1006.7 |
| 20260505001522 | 58 | 294 | 0.0 | 2.0 | 0.00 | 0.00 | 0.00 | 47 | 1006.4 |
| 20260505000038 | 61 | 271 | 0.0 | 3.0 | 0.00 | 0.00 | 0.00 | 44 | 1006.2 |
| 20260504234528 | 63 | 129 | 1.0 | 4.0 | 0.00 | 0.00 | 0.00 | 43 | 1005.9 |
| 20260504233016 | 64 | 160 | 0.0 | 5.0 | 0.00 | 0.00 | 0.00 | 43 | 1005.7 |
| 20260504231517 | 64 | 180 | 1.0 | 4.0 | 0.00 | 0.00 | 0.00 | 40 | 1005.5 |
| 20260504230026 | 65 | 171 | 2.0 | 4.0 | 0.00 | 0.00 | 0.00 | 38 | 1005.2 |
| 20260504224524 | 67 | 290 | 1.0 | 10.0 | 0.00 | 0.00 | 0.00 | 37 | 1005.2 |
| 20260504223013 | 68 | 303 | 3.0 | 11.0 | 0.00 | 0.00 | 0.00 | 35 | 1005.1 |
| 20260504221525 | 68 | 352 | 3.0 | 8.0 | 0.00 | 0.00 | 0.00 | 35 | 1005.0 |
| 20260504220039 | 68 | 300 | 2.0 | 11.0 | 0.00 | 0.00 | 0.00 | 35 | 1004.9 |
| 20260504214507 | 69 | 61 | 3.0 | 10.0 | 0.00 | 0.00 | 0.00 | 34 | 1005.1 |
| 20260504213014 | 68 | 85 | 2.0 | 8.0 | 0.00 | 0.00 | 0.00 | 35 | 1005.0 |
| 20260504211514 | 69 | 57 | 3.0 | 10.0 | 0.00 | 0.00 | 0.00 | 35 | 1005.2 |
| 20260504210020 | 68 | 251 | 3.0 | 10.0 | 0.00 | 0.00 | 0.00 | 39 | 1005.1 |
| 20260504204536 | 67 | 281 | 2.0 | 14.0 | 0.00 | 0.00 | 0.00 | 38 | 1005.3 |
| 20260504203007 | 66 | 340 | 4.0 | 11.0 | 0.00 | 0.00 | 0.00 | 36 | 1005.2 |
| 20260504201514 | 66 | 342 | 6.0 | 10.0 | 0.00 | 0.00 | 0.00 | 38 | 1005.2 |
| 20260504200019 | 66 | 232 | 4.0 | 15.0 | 0.00 | 0.00 | 0.00 | 37 | 1005.3 |
| 20260504194524 | 67 | 281 | 4.0 | 17.0 | 0.00 | 0.00 | 0.00 | 37 | 1005.5 |
| 20260504193027 | 67 | 125 | 5.0 | 13.0 | 0.00 | 0.00 | 0.00 | 38 | 1005.5 |
| 20260504191511 | 65 | 10 | 3.0 | 10.0 | 0.00 | 0.00 | 0.00 | 39 | 1005.6 |
| 20260504190020 | 67 | 338 | 3.0 | 15.0 | 0.00 | 0.00 | 0.00 | 37 | 1005.4 |
| 20260504184520 | 67 | 273 | 5.0 | 12.0 | 0.00 | 0.00 | 0.00 | 36 | 1005.6 |
| 20260504183026 | 66 | 212 | 3.0 | 17.0 | 0.00 | 0.00 | 0.00 | 40 | 1005.7 |
| 20260504181531 | 66 | 211 | 5.0 | 12.0 | 0.00 | 0.00 | 0.00 | 39 | 1005.5 |
| 20260504180014 | 64 | 279 | 4.0 | 11.0 | 0.00 | 0.00 | 0.00 | 46 | 1005.6 |
| 20260504174522 | 62 | 285 | 2.0 | 9.0 | 0.00 | 0.00 | 0.00 | 41 | 1005.8 |
| 20260504173022 | 63 | 266 | 4.0 | 14.0 | 0.00 | 0.00 | 0.00 | 41 | 1005.7 |
| 20260504171524 | 63 | 9 | 3.0 | 12.0 | 0.00 | 0.00 | 0.00 | 41 | 1005.7 |